DECAYED

CZ-6A DEB, 54485 (Decayed)

Orbit data source: Space-Track

CZ-6A DEB, 54485 was space debris in SSO originally from a launch on Fri, 11 Nov 2022 UTC launched from the Taiyaun Space Center, China (TSC). Debris objects in space refer to the collection of defunct objects orbiting the Earth. Examples of debris include non-operational satellites, rocket bodies, and fragments generated from explosions, collisions, or faulty payload assembly.

Not visible in the next 10 days
Identifier
54485, 2022-151HM
Orbit
Decayed
Country
Flag of CNCN / PRC
Related business
Manufacturer
SAST
Mission
Decayed spacecraft
Bus & Motor
Unknown
Mass
Unknown
Launch date (UTC)
2022-11-11 (4 years ago)
Launch vehicle
Unknown
Launch site
Taiyaun Space Center, China (TSC)
Object type
Payload
Rocket body
Debris
Shape & HBR
Unknown shape, 0.1 m
Radar Cross Section
Small (<0.1 m²)

Expand to show TLE details & history
Last TLE update: 10 months ago

TLE from 10 months ago
0 CZ-6A DEB
1 54485U 22151HM  25219.44243430  .03838265  17735-1  20358-1 0  9998
2 54485  98.5482 273.3625 0021556 253.1300 106.7602 15.84593836144929
Epoch: 2025-08-07T10:37Z
TLE epoch observation values (Epoch: 2025-08-07T10:37:06.323Z)
Latitude
-0.00008°
Longitude
157.87939°
Altitude
324.801 km
Speed
7.711 km/s
True Right ascension
18h 13m 27s
True Declination
0° 00' 00"
Sunlit
Object was in full shadow at epoch
Visualization orbit readout
Latitude
Unknown
Longitude
Unknown
Altitude
Unknown
Speed
Unknown
Apparent Right ascension
Unknown
Apparent Declination
Unknown
Sunlit
N/A
Visualization observer readout
Local Sidereal Time
10:14:15
Azimuth
Unknown
Elevation
Unknown
Doppler factor
Unknown
Orbital elements
Apogee altitude
328.829 km
Perigee altitude
299.976 km
Semi-major axis
6,692.54 km
Eccentricity
0.00216
Inclination
98.5482°
RAAN
273.3625°
Arg. of periapsis
253.13°
True anomaly
106.99654°
Mean anomaly
106.7602°
Eccentric anomaly
106.87839°
Mean motion
3.96421 °/min
Orbital period
90.81 mins
BSTAR
0.020358
Loading maneuver chart data...
Computing Atmospheric mass density...
Loading historical data...
Loading historical data...
Loading historical data...
Loading historical data...
Loading historical data...
Loading historical data...
Loading historical data...

Documentation

Showing up to 5 results
|